NOO9902 RJOM-RJTT

Flight info

Callsign NOO9902
Flight time 1h 6m
Altitude 35000
Route SAKAR KRE V37 PADOC Y43 MENUR Y21 AKSEL
Aircraft B738/M-SDE2E3FGHIRWXY/LB1

Departure

Time 2026-04-20 02:17
Airport Matsuyama Airport (RJOM)

Arrival

Time 2026-04-20 03:23
Airport Tokyo Haneda International Airport (RJTT)
Time Latitude Longitude Altitude Speed Heading
2026-04-20 02:02 33.82877 132.70312 27 ft 0 kts 41°
2026-04-20 02:05 33.82872 132.70308 27 ft 2 kts 41°
2026-04-20 02:05 33.82861 132.70296 27 ft 2 kts 41°
2026-04-20 02:05 33.82849 132.70285 27 ft 2 kts 40°
2026-04-20 02:05 33.82838 132.70273 27 ft 2 kts 41°
2026-04-20 02:06 33.82826 132.70261 26 ft 2 kts 41°
2026-04-20 02:06 33.82815 132.70248 26 ft 2 kts 41°
2026-04-20 02:06 33.82804 132.70238 26 ft 2 kts 41°
2026-04-20 02:06 33.82792 132.70226 25 ft 2 kts 41°
2026-04-20 02:07 33.82782 132.70212 25 ft 2 kts 70°
2026-04-20 02:07 33.82780 132.70195 24 ft 2 kts 106°
2026-04-20 02:07 33.82784 132.70184 24 ft 1 kts 129°
2026-04-20 02:07 33.82789 132.70178 24 ft 0 kts 130°
2026-04-20 02:12 33.82769 132.70206 24 ft 10 kts 130°
2026-04-20 02:12 33.82708 132.70294 25 ft 14 kts 130°
2026-04-20 02:12 33.82645 132.70383 25 ft 13 kts 131°
2026-04-20 02:12 33.82587 132.70464 25 ft 12 kts 131°
2026-04-20 02:13 33.82533 132.70538 25 ft 11 kts 130°
2026-04-20 02:13 33.82481 132.70612 25 ft 13 kts 131°
2026-04-20 02:13 33.82415 132.70702 25 ft 15 kts 130°
2026-04-20 02:13 33.82338 132.70810 22 ft 19 kts 130°
2026-04-20 02:14 33.82245 132.70940 22 ft 21 kts 131°
2026-04-20 02:14 33.82137 132.71021 22 ft 9 kts 190°
2026-04-20 02:14 33.82098 132.71013 22 ft 3 kts 190°
2026-04-20 02:14 33.82082 132.71010 22 ft 2 kts 190°
2026-04-20 02:15 33.82046 132.71002 22 ft 8 kts 190°
2026-04-20 02:15 33.82013 132.70969 22 ft 5 kts 270°
2026-04-20 02:15 33.82030 132.70935 22 ft 2 kts 310°
2026-04-20 02:15 33.82032 132.70932 22 ft 0 kts 310°
2026-04-20 02:16 33.82033 132.70931 22 ft 3 kts 310°
2026-04-20 02:16 33.82204 132.70692 23 ft 74 kts 311°
2026-04-20 02:16 33.82698 132.70004 19 ft 140 kts 310°
2026-04-20 02:16 33.83442 132.68948 189 ft 180 kts 311°
2026-04-20 02:17 33.84182 132.67809 1046 ft 176 kts 309°
2026-04-20 02:17 33.84959 132.66600 1599 ft 194 kts 306°
2026-04-20 02:17 33.85522 132.65085 2177 ft 208 kts 273°
2026-04-20 02:17 33.85150 132.63415 2755 ft 217 kts 231°
2026-04-20 02:18 33.83906 132.62373 3370 ft 228 kts 195°
2026-04-20 02:18 33.82323 132.62170 4127 ft 235 kts 174°
2026-04-20 02:18 33.80741 132.62653 4937 ft 243 kts 155°
2026-04-20 02:18 33.79201 132.63577 5698 ft 254 kts 155°
2026-04-20 02:19 33.77575 132.64464 6521 ft 261 kts 158°
2026-04-20 02:19 33.75902 132.65292 7332 ft 267 kts 159°
2026-04-20 02:19 33.74165 132.66127 8153 ft 273 kts 159°
2026-04-20 02:19 33.72401 132.66981 8924 ft 279 kts 160°
2026-04-20 02:20 33.70589 132.67866 9621 ft 282 kts 159°
2026-04-20 02:20 33.68769 132.68761 10181 ft 288 kts 160°
2026-04-20 02:20 33.66910 132.69809 10507 ft 305 kts 151°
2026-04-20 02:20 33.65117 132.71258 10838 ft 321 kts 145°
2026-04-20 02:21 33.61447 132.74731 11502 ft 351 kts 143°
2026-04-20 02:21 33.59620 132.76802 11802 ft 368 kts 131°
2026-04-20 02:21 33.58185 132.79346 12291 ft 378 kts 118°
2026-04-20 02:22 33.57301 132.82361 12815 ft 387 kts 101°
2026-04-20 02:22 33.57034 132.85567 13542 ft 388 kts 93°
2026-04-20 02:22 33.56923 132.88794 14045 ft 396 kts 91°
2026-04-20 02:22 33.56846 132.92114 14685 ft 400 kts 91°
2026-04-20 02:23 33.56770 132.95471 15257 ft 407 kts 91°
2026-04-20 02:23 33.56682 132.98862 15872 ft 412 kts 91°
2026-04-20 02:23 33.56582 133.02287 16470 ft 417 kts 91°
2026-04-20 02:23 33.56471 133.05733 17103 ft 420 kts 91°
2026-04-20 02:24 33.56354 133.09258 17624 ft 426 kts 90°
2026-04-20 02:24 33.56233 133.12795 18233 ft 429 kts 90°
2026-04-20 02:24 33.56108 133.16379 18886 ft 430 kts 90°
2026-04-20 02:24 33.55982 133.19949 19502 ft 432 kts 90°
2026-04-20 02:25 33.55853 133.23555 20101 ft 435 kts 90°
2026-04-20 02:25 33.55723 133.27142 20642 ft 438 kts 89°
2026-04-20 02:25 33.55590 133.30806 21218 ft 440 kts 89°
2026-04-20 02:25 33.55456 133.34488 21694 ft 445 kts 89°
2026-04-20 02:26 33.55318 133.38200 22241 ft 447 kts 89°
2026-04-20 02:26 33.55179 133.41899 22819 ft 448 kts 89°
2026-04-20 02:26 33.55036 133.45619 23371 ft 450 kts 89°
2026-04-20 02:26 33.54894 133.49397 23711 ft 457 kts 89°
2026-04-20 02:27 33.54752 133.53151 24227 ft 459 kts 88°
2026-04-20 02:27 33.54607 133.56970 24796 ft 460 kts 88°
2026-04-20 02:27 33.54459 133.60834 25062 ft 468 kts 88°
2026-04-20 02:27 33.54308 133.64705 25648 ft 467 kts 88°
2026-04-20 02:28 33.54156 133.68634 25889 ft 475 kts 88°
2026-04-20 02:28 33.53998 133.72549 26375 ft 477 kts 88°
2026-04-20 02:28 33.53828 133.76529 26840 ft 479 kts 88°
2026-04-20 02:28 33.53653 133.80530 27270 ft 481 kts 88°
2026-04-20 02:29 33.53477 133.84535 27617 ft 485 kts 87°
2026-04-20 02:29 33.53297 133.88565 28058 ft 487 kts 87°
2026-04-20 02:29 33.53117 133.92593 28403 ft 489 kts 87°
2026-04-20 02:29 33.52933 133.96704 28728 ft 493 kts 87°
2026-04-20 02:30 33.52750 134.00768 29073 ft 496 kts 86°
2026-04-20 02:30 33.52563 134.04890 29446 ft 498 kts 86°
2026-04-20 02:30 33.52373 134.09027 29958 ft 497 kts 86°
2026-04-20 02:30 33.52184 134.13123 30433 ft 495 kts 87°
2026-04-20 02:31 33.51993 134.17244 30981 ft 493 kts 87°
2026-04-20 02:31 33.51800 134.21356 31475 ft 490 kts 87°
2026-04-20 02:31 33.51609 134.25407 31883 ft 490 kts 88°
2026-04-20 02:31 33.51417 134.29474 32322 ft 488 kts 88°
2026-04-20 02:32 33.51224 134.33507 32754 ft 486 kts 88°
2026-04-20 02:32 33.51028 134.37581 33197 ft 484 kts 88°
2026-04-20 02:32 33.50838 134.41588 33615 ft 482 kts 88°
2026-04-20 02:32 33.50659 134.45633 33778 ft 486 kts 89°
2026-04-20 02:33 33.50485 134.49674 33924 ft 489 kts 89°
2026-04-20 02:33 33.50312 134.53723 34082 ft 492 kts 89°
2026-04-20 02:33 33.50132 134.57884 34295 ft 493 kts 89°
2026-04-20 02:33 33.49956 134.61957 34563 ft 493 kts 90°
2026-04-20 02:34 33.49781 134.66043 34778 ft 494 kts 90°
2026-04-20 02:34 33.49604 134.70152 34948 ft 495 kts 91°
2026-04-20 02:34 33.49427 134.74254 34955 ft 495 kts 91°
2026-04-20 02:35 33.49066 134.82448 34960 ft 493 kts 91°
2026-04-20 02:35 33.48700 134.90614 34962 ft 495 kts 91°
2026-04-20 02:36 33.48327 134.98839 34950 ft 497 kts 92°
2026-04-20 02:36 33.47951 135.07118 34969 ft 496 kts 91°
2026-04-20 02:37 33.47581 135.15338 34961 ft 498 kts 92°
2026-04-20 02:37 33.47208 135.23590 34975 ft 502 kts 92°
2026-04-20 02:38 33.46821 135.31955 34976 ft 502 kts 92°
2026-04-20 02:38 33.46448 135.40312 34992 ft 503 kts 92°
2026-04-20 02:39 33.46101 135.48659 34975 ft 505 kts 93°
2026-04-20 02:39 33.45750 135.57071 35000 ft 505 kts 93°
2026-04-20 02:40 33.45394 135.65402 34969 ft 504 kts 94°
2026-04-20 02:40 33.45046 135.73801 34989 ft 508 kts 92°
2026-04-20 02:41 33.45349 135.82217 35180 ft 508 kts 83°
2026-04-20 02:41 33.45921 135.86372 34999 ft 505 kts 79°
2026-04-20 02:41 33.46653 135.90457 34981 ft 504 kts 77°
2026-04-20 02:42 33.48348 135.98665 34999 ft 509 kts 76°
2026-04-20 02:42 33.50059 136.06786 35001 ft 508 kts 76°
2026-04-20 02:43 33.51735 136.15004 34995 ft 506 kts 77°
2026-04-20 02:43 33.53349 136.23175 35000 ft 508 kts 77°
2026-04-20 02:44 33.54957 136.31453 35000 ft 508 kts 77°
2026-04-20 02:44 33.56539 136.39677 35008 ft 508 kts 77°
2026-04-20 02:45 33.58117 136.47923 35009 ft 508 kts 77°
2026-04-20 02:45 33.59690 136.56165 35009 ft 510 kts 77°
2026-04-20 02:46 33.61261 136.64420 35001 ft 508 kts 78°
2026-04-20 02:46 33.62826 136.72669 35000 ft 511 kts 78°
2026-04-20 02:47 33.64389 136.80931 35000 ft 510 kts 78°
2026-04-20 02:47 33.65957 136.89258 35012 ft 509 kts 78°
2026-04-20 02:48 33.67507 136.97527 35004 ft 512 kts 78°
2026-04-20 02:48 33.69057 137.05835 35007 ft 512 kts 78°
2026-04-20 02:49 33.70603 137.14156 35004 ft 512 kts 78°
2026-04-20 02:49 33.72152 137.22527 35021 ft 513 kts 78°
2026-04-20 02:50 33.73685 137.30826 35011 ft 512 kts 78°
2026-04-20 02:50 33.75222 137.39185 35015 ft 514 kts 79°
2026-04-20 02:51 33.76755 137.47556 35012 ft 514 kts 79°
2026-04-20 02:51 33.78293 137.55984 35010 ft 516 kts 78°
2026-04-20 02:52 33.79818 137.64381 35022 ft 517 kts 78°
2026-04-20 02:52 33.81337 137.72775 35019 ft 518 kts 79°
2026-04-20 02:53 33.82869 137.81282 35022 ft 519 kts 79°
2026-04-20 02:53 33.84388 137.89758 35014 ft 520 kts 80°
2026-04-20 02:54 33.85894 137.98198 35027 ft 519 kts 80°
2026-04-20 02:54 33.87408 138.06722 35025 ft 520 kts 80°
2026-04-20 02:55 33.88908 138.15195 35038 ft 523 kts 81°
2026-04-20 02:55 33.90528 138.23717 35036 ft 523 kts 77°
2026-04-20 02:56 33.92773 138.31448 35033 ft 526 kts 67°
2026-04-20 02:56 33.95986 138.39386 35043 ft 528 kts 62°
2026-04-20 02:57 33.99504 138.47144 35031 ft 526 kts 61°
2026-04-20 02:57 34.03070 138.54895 35044 ft 529 kts 61°
2026-04-20 02:58 34.06578 138.62656 35034 ft 527 kts 61°
2026-04-20 02:58 34.10041 138.70435 35041 ft 529 kts 63°
2026-04-20 02:59 34.13484 138.78232 34675 ft 523 kts 63°
2026-04-20 02:59 34.15197 138.82123 34162 ft 521 kts 63°
2026-04-20 02:59 34.16886 138.85971 33478 ft 523 kts 63°
2026-04-20 02:59 34.18590 138.89862 32759 ft 527 kts 63°
2026-04-20 03:00 34.20297 138.93765 31895 ft 532 kts 63°
2026-04-20 03:00 34.22020 138.97708 31196 ft 529 kts 63°
2026-04-20 03:00 34.23730 139.01622 30959 ft 517 kts 63°
2026-04-20 03:00 34.25382 139.05402 30601 ft 509 kts 63°
2026-04-20 03:01 34.27018 139.09149 30049 ft 507 kts 63°
2026-04-20 03:01 34.28637 139.12930 29372 ft 505 kts 64°
2026-04-20 03:01 34.30121 139.16742 28519 ft 506 kts 66°
2026-04-20 03:01 34.31524 139.20656 27665 ft 507 kts 68°
2026-04-20 03:02 34.32862 139.24571 26782 ft 508 kts 69°
2026-04-20 03:02 34.34177 139.28503 25912 ft 508 kts 69°
2026-04-20 03:02 34.35490 139.32448 24900 ft 506 kts 69°
2026-04-20 03:02 34.36795 139.36360 23915 ft 494 kts 69°
2026-04-20 03:03 34.38070 139.40160 22739 ft 488 kts 68°
2026-04-20 03:03 34.39330 139.43893 21741 ft 478 kts 69°
2026-04-20 03:03 34.40573 139.47560 20712 ft 469 kts 69°
2026-04-20 03:03 34.41789 139.51135 19726 ft 460 kts 69°
2026-04-20 03:04 34.43005 139.54704 18678 ft 452 kts 69°
2026-04-20 03:04 34.44187 139.58171 17704 ft 443 kts 69°
2026-04-20 03:04 34.45337 139.61546 16722 ft 436 kts 69°
2026-04-20 03:04 34.46472 139.64879 15753 ft 427 kts 69°
2026-04-20 03:05 34.47663 139.68115 14903 ft 420 kts 65°
2026-04-20 03:05 34.49192 139.71147 14098 ft 422 kts 53°
2026-04-20 03:05 34.51276 139.73608 13571 ft 417 kts 39°
2026-04-20 03:05 34.53628 139.75545 13239 ft 406 kts 34°
2026-04-20 03:06 34.56010 139.77295 13074 ft 391 kts 32°
2026-04-20 03:06 34.58332 139.78934 12907 ft 377 kts 32°
2026-04-20 03:06 34.60555 139.80495 12737 ft 364 kts 32°
2026-04-20 03:06 34.62703 139.82021 12565 ft 352 kts 33°
2026-04-20 03:07 34.64774 139.83513 12394 ft 340 kts 33°
2026-04-20 03:07 34.66749 139.84955 12235 ft 329 kts 33°
2026-04-20 03:07 34.68711 139.86401 11997 ft 321 kts 34°
2026-04-20 03:07 34.70576 139.87778 11993 ft 305 kts 34°
2026-04-20 03:08 34.72346 139.89085 11995 ft 290 kts 34°
2026-04-20 03:08 34.74037 139.90334 11997 ft 282 kts 34°
2026-04-20 03:08 34.75720 139.91583 11999 ft 285 kts 34°
2026-04-20 03:08 34.77412 139.92841 11997 ft 286 kts 34°
2026-04-20 03:09 34.79118 139.94119 11997 ft 284 kts 35°
2026-04-20 03:09 34.80809 139.95383 11956 ft 283 kts 33°
2026-04-20 03:09 34.82485 139.96561 11704 ft 280 kts 32°
2026-04-20 03:09 34.84194 139.97742 11307 ft 281 kts 32°
2026-04-20 03:10 34.85884 139.98904 10992 ft 280 kts 32°
2026-04-20 03:10 34.87694 139.99811 10637 ft 282 kts 18°
2026-04-20 03:10 34.89611 140.00326 10330 ft 281 kts 13°
2026-04-20 03:10 34.91526 140.00743 10021 ft 279 kts 13°
2026-04-20 03:11 34.93421 140.01170 9697 ft 277 kts 16°
2026-04-20 03:11 34.95274 140.01785 9445 ft 273 kts 19°
2026-04-20 03:11 34.97071 140.02451 9207 ft 272 kts 18°
2026-04-20 03:11 34.98954 140.02859 8955 ft 274 kts
2026-04-20 03:12 35.00868 140.02879 8710 ft 273 kts 358°
2026-04-20 03:12 35.02736 140.02596 8467 ft 273 kts 351°
2026-04-20 03:12 35.04587 140.02046 8221 ft 272 kts 345°
2026-04-20 03:12 35.06386 140.01370 8006 ft 268 kts 343°
2026-04-20 03:13 35.08153 140.00664 8000 ft 268 kts 343°
2026-04-20 03:13 35.09953 139.99942 7989 ft 272 kts 343°
2026-04-20 03:13 35.11741 139.99237 7988 ft 269 kts 343°
2026-04-20 03:13 35.13525 139.98541 7995 ft 270 kts 343°
2026-04-20 03:14 35.15345 139.97940 7985 ft 270 kts 353°
2026-04-20 03:14 35.17192 139.97830 7859 ft 263 kts
2026-04-20 03:14 35.19023 139.97960 7468 ft 260 kts
2026-04-20 03:14 35.20781 139.98105 7290 ft 247 kts
2026-04-20 03:15 35.22494 139.98209 7069 ft 236 kts
2026-04-20 03:15 35.24100 139.98274 6908 ft 224 kts
2026-04-20 03:15 35.25625 139.98215 6744 ft 214 kts 352°
2026-04-20 03:15 35.26987 139.97600 6444 ft 209 kts 332°
2026-04-20 03:16 35.28213 139.96693 6171 ft 203 kts 329°
2026-04-20 03:16 35.29410 139.95776 5856 ft 200 kts 328°
2026-04-20 03:16 35.30577 139.94858 5451 ft 202 kts 329°
2026-04-20 03:16 35.31795 139.93959 5032 ft 206 kts 331°
2026-04-20 03:17 35.33003 139.93111 4730 ft 194 kts 332°
2026-04-20 03:17 35.34145 139.92307 4408 ft 186 kts 332°
2026-04-20 03:17 35.35251 139.91528 4173 ft 182 kts 332°
2026-04-20 03:17 35.36336 139.90765 4003 ft 175 kts 332°
2026-04-20 03:18 35.37390 139.90027 3652 ft 171 kts 332°
2026-04-20 03:18 35.38398 139.89317 3410 ft 163 kts 332°
2026-04-20 03:18 35.39386 139.88620 3252 ft 165 kts 332°
2026-04-20 03:18 35.40385 139.87920 2992 ft 164 kts 332°
2026-04-20 03:19 35.41369 139.87227 2777 ft 161 kts 332°
2026-04-20 03:19 35.42343 139.86542 2563 ft 163 kts 332°
2026-04-20 03:19 35.43318 139.85854 2339 ft 162 kts 333°
2026-04-20 03:19 35.44295 139.85169 2124 ft 161 kts 333°
2026-04-20 03:20 35.45277 139.84476 1906 ft 161 kts 333°
2026-04-20 03:20 35.46258 139.83783 1692 ft 162 kts 333°
2026-04-20 03:20 35.47223 139.83102 1470 ft 160 kts 333°
2026-04-20 03:20 35.48196 139.82414 1255 ft 160 kts 332°
2026-04-20 03:21 35.49149 139.81746 1052 ft 157 kts 332°
2026-04-20 03:21 35.50090 139.81079 840 ft 156 kts 331°
2026-04-20 03:21 35.51030 139.80415 640 ft 154 kts 331°
2026-04-20 03:21 35.51958 139.79746 431 ft 153 kts 331°
2026-04-20 03:22 35.52864 139.79114 236 ft 151 kts 332°
2026-04-20 03:22 35.53794 139.78464 54 ft 152 kts 331°
2026-04-20 03:22 35.54664 139.77853 18 ft 125 kts 330°
2026-04-20 03:22 35.55250 139.77437 28 ft 70 kts 330°
2026-04-20 03:23 35.55529 139.77237 29 ft 32 kts 329°
2026-04-20 03:23 35.55671 139.77182 28 ft 16 kts 35°
2026-04-20 03:23 35.55755 139.77260 28 ft 12 kts 39°
2026-04-20 03:23 35.55768 139.77324 29 ft 8 kts 142°
2026-04-20 03:24 35.55728 139.77356 30 ft 5 kts 148°
2026-04-20 03:24 35.55700 139.77376 30 ft 3 kts 149°
2026-04-20 03:24 35.55671 139.77397 31 ft 8 kts 149°
2026-04-20 03:24 35.55616 139.77437 32 ft 8 kts 150°
2026-04-20 03:25 35.55570 139.77467 33 ft 6 kts 155°
2026-04-20 03:25 35.55535 139.77489 33 ft 6 kts 152°
2026-04-20 03:25 35.55473 139.77533 34 ft 11 kts 149°
2026-04-20 03:25 35.55407 139.77580 34 ft 10 kts 149°
2026-04-20 03:26 35.55345 139.77626 33 ft 10 kts 149°
2026-04-20 03:26 35.55322 139.77687 34 ft 8 kts 65°
2026-04-20 03:26 35.55348 139.77745 34 ft 6 kts 60°
2026-04-20 03:26 35.55371 139.77792 34 ft 6 kts 60°
2026-04-20 03:27 35.55381 139.77838 34 ft 5 kts 99°
2026-04-20 03:27 35.55364 139.77873 34 ft 4 kts 136°
2026-04-20 03:27 35.55365 139.77899 34 ft 3 kts 61°
2026-04-20 03:27 35.55378 139.77927 34 ft 3 kts 60°
2026-04-20 03:28 35.55389 139.77949 34 ft 2 kts 60°
2026-04-20 03:28 35.55397 139.77968 34 ft 2 kts 60°
2026-04-20 03:28 35.55399 139.77971 34 ft 0 kts 60°